Location: Hope
(40.9110°N, 74.9680°W)
Time: 05:19:20
(UTC-05:00)

Envisat - Visible Passes

Search period start: 24 January 2019 00:00
Search period end: 03 February 2019 00:00
Orbit: 764 x 766 km, 98.2° (Epoch: 24 January)

Date Brightness Start Highest point End Pass type
(mag) Time Alt. Az. Time Alt. Az. Time Alt. Az.
24 Jan 3.2 18:53:57 10° S 18:59:01 73° WSW 19:04:07 10° NNW visible
25 Jan 3.1 18:17:27 10° SSE 18:22:20 51° ENE 18:27:15 10° N visible
25 Jan 5.6 19:58:10 10° SW 20:01:38 18° W 20:05:07 10° NW visible
26 Jan 6.0 06:27:34 10° NE 06:30:59 18° E 06:34:22 10° SE visible
26 Jan 4.0 17:41:51 10° ESE 17:45:51 24° ENE 17:49:53 10° NNE visible
26 Jan 4.3 19:19:52 10° SSW 19:24:37 40° W 19:29:25 10° NNW visible
27 Jan 2.9 18:42:44 10° SSE 18:47:49 89° ENE 18:52:55 10° NNW visible
28 Jan 3.4 18:06:29 10° SE 18:11:11 40° ENE 18:15:56 10° N visible
28 Jan 5.3 19:46:20 10° SW 19:50:20 23° W 19:54:21 10° NW visible
29 Jan 6.2 06:17:03 10° ENE 06:19:39 14° E 06:22:15 10° ESE visible
29 Jan 3.8 19:08:27 10° S 19:13:22 52° W 19:18:21 10° NNW visible
30 Jan 2.9 18:31:35 10° SSE 18:36:37 71° ENE 18:41:42 10° N visible
30 Jan 6.0 20:13:52 10° WSW 20:16:08 13° W 20:18:27 10° WNW visible
31 Jan 5.7 06:41:18 10° NE 06:45:27 25° E 06:49:35 10° SSE visible
31 Jan 3.6 17:55:35 10° SE 18:00:03 32° ENE 18:04:33 10° N visible
31 Jan 4.9 19:34:40 10° SSW 19:39:02 29° W 19:43:28 10° NW visible
01 Feb 6.6 06:07:14 10° ENE 06:08:19 11° E 06:09:23 10° E visible
01 Feb 3.4 18:57:07 10° S 19:02:09 66° W 19:07:13 10° NNW visible
02 Feb 3.0 18:20:30 10° SSE 18:25:27 56° ENE 18:30:26 10° N visible
02 Feb 5.7 20:01:36 10° SW 20:04:49 17° W 20:08:02 10° NW visible
